Content
SEND FEEDBACK

Daily
Averages
Monthly
Summary
United States of America

MILTON, NEW JERSEY


Home > North America > United States > New Jersey
Elevation: 950 feet     Latitude: 41 01N     Longitude: 074 32W

WEATHER
 
SELECT A DAY
Number of Records: 251,233;   Date Range: 3/6/98 - 7/31/14
 
SHARE

PRINT THIS DATA

[ ← Previous Day ]
WEATHER ALMANAC - FEBRUARY 13, 2013
[ Next Day → ]
[ °C ]   °F
Weather ElementAverageHighLow
Temperature32.5 °F42.1 °F (1:54 pm)21 °F (6:54 am)
Dewpoint24.3 °F32 °F (9:54 pm)18 °F (6:54 am)
Humidity74.5 %96 % (9:54 pm)47 % (12:54 pm)
Barometer29.83 in29.98 in (1:54 am)29.72 in (5:54 pm)

Weather ElementAverage
Weather ElementTotal
Precipitation0.02 in
Heating Degree Days33.5 (Base 65)
Averaged from 23 records on February 13, 2013
WEATHER CONDITIONS BREAKOUT
WIND DIRECTION BREAKOUT
WEATHER BY HOUR - FEBRUARY 13, 2013
[ °C ]   °F
Local TimeTemperatureDewpointHumidityBarometerVisibilityWind DirectionWind SpeedGust SpeedPrecipitationEventsConditions
1:54 AM26.1 °F21.9 °F84 %29.98 inCalm
2:54 AM24.1 °F19.9 °F84 %29.96 inCalm
3:54 AM23.0 °F21.0 °F92 %29.95 inCalm
4:54 AM21.9 °F19.0 °F89 %29.92 inCalm
5:54 AM23.0 °F19.0 °F85 %29.92 inCalm
6:54 AM21.0 °F18.0 °F88 %29.94 inCalm
7:54 AM23.0 °F19.9 °F88 %29.93 inCalm
8:54 AM30.0 °F26.1 °F85 %29.91 inCalm
9:54 AM35.1 °F21.9 °F59 %29.88 inCalm
10:54 AM37.0 °F21.0 °F52 %29.89 inCalm
11:54 AM39.0 °F21.9 °F50 %29.87 inCalm
12:54 PM41.0 °F21.9 °F47 %29.82 inCalm
1:54 PM42.1 °F23.0 °F47 %29.79 inCalm
2:54 PM41.0 °F23.0 °F49 %29.77 inCalm
3:54 PM41.0 °F24.1 °F51 %29.75 inCalm
4:54 PM37.9 °F27.0 °F65 %29.73 inCalm
5:54 PM36.0 °F28.0 °F73 %29.72 inCalm
6:54 PM35.1 °F28.0 °F76 %29.72 inCalm
7:54 PM36.0 °F28.9 °F76 %29.73 inCalm
8:54 PM34.0 °F30.9 °F89 %29.74 inCalm
9:54 PM33.1 °F32.0 °F96 %29.74 inCalm0.01 in
10:54 PM33.1 °F32.0 °F96 %29.72 inCalm0.01 in
11:54 PM33.1 °F30.9 °F92 %29.73 inCalm
Hourly data recorded from K12N, located miles away from Milton, New Jersey







STORIES FROM OUR PARTNERS